Antares — DFJQ — position and weather

sailwx.info

Track history (hours):
 
Tides and Currents Weather Stations Pressure Air Temp Water Temp Dewpoint Dewpoint Depression Visibility Wind Speed Wind Dir Waves Ship Positions

Antares

Last reported at 2014-Nov-28 22:33 UTC. Time now 2014-Nov-28 22:55 UTC.
Position N 53°52' E 008°43'.

Length 79 m; draft 4.4 m.

Type: Ship. MMSI: 218777000.

Date/timePositionNaut miles runAvg speedWind from/ knotsBaromVisibWave heightAir tempDewpointWater temp
2014-Nov-28 22:33N 53°52' E 008°43'0 0.1
2014-Nov-28 21:33N 53°52' E 008°43'0 0.0
2014-Nov-28 20:33N 53°52' E 008°43'0 0.0
2014-Nov-28 19:33N 53°52' E 008°43'0 0.0
2014-Nov-28 18:33N 53°52' E 008°43'0 0.0
2014-Nov-28 17:33N 53°52' E 008°43'0 0.0
2014-Nov-28 16:33N 53°52' E 008°43'0 0.0
2014-Nov-28 15:33N 53°52' E 008°43'0 0.0
2014-Nov-28 14:33N 53°52' E 008°43'0 0.0
2014-Nov-28 13:33N 53°52' E 008°43'0 0.0
2014-Nov-28 12:30N 53°52' E 008°43'0 0.0
2014-Nov-28 11:33N 53°52' E 008°43'0 0.0
2014-Nov-28 10:33N 53°52' E 008°43'0 0.0
2014-Nov-28 09:33N 53°52' E 008°43'0 0.0
2014-Nov-28 08:33N 53°52' E 008°43'0 0.0
2014-Nov-28 07:30N 53°52' E 008°43'0 0.0
2014-Nov-28 06:33N 53°52' E 008°43'0 0.1
2014-Nov-28 05:33N 53°52' E 008°43'0 0.0
2014-Nov-28 04:33N 53°52' E 008°43'0 0.0
2014-Nov-28 03:33N 53°52' E 008°43'0 0.0
2014-Nov-28 02:33N 53°52' E 008°43'0 0.0
2014-Nov-28 01:33N 53°52' E 008°43'0 0.0
2014-Nov-28 00:33N 53°52' E 008°43'0 0.0
2014-Nov-27 23:33N 53°52' E 008°43'0 0.0
2014-Nov-27 22:33N 53°52' E 008°43'0 0.0
2014-Nov-27 21:33N 53°52' E 008°43'0 0.0
2014-Nov-27 20:33N 53°52' E 008°43'0 0.0
2014-Nov-27 19:33N 53°52' E 008°43'0 0.0
2014-Nov-27 18:33N 53°52' E 008°43'0 0.0
2014-Nov-27 17:30N 53°52' E 008°43'0 0.0
2014-Nov-27 16:33N 53°52' E 008°43'0 0.0
2014-Nov-27 15:33N 53°52' E 008°43'0 0.0
2014-Nov-27 14:33N 53°52' E 008°43'0 0.0
2014-Nov-27 13:33N 53°52' E 008°43'0 0.0
2014-Nov-27 12:33N 53°52' E 008°43'1 0.6
2014-Nov-27 11:33N 53°51' E 008°43'0 0.1
2014-Nov-27 10:31N 53°51' E 008°43'0 0.0
2014-Nov-27 09:31N 53°51' E 008°43'0 0.0
2014-Nov-27 08:31N 53°51' E 008°43'0 0.0
2014-Nov-27 07:31N 53°51' E 008°43'0 0.0
2014-Nov-27 06:31N 53°51' E 008°43'0 0.0
2014-Nov-27 05:31N 53°51' E 008°43'0 0.0
2014-Nov-27 04:31N 53°51' E 008°43'0 0.0
2014-Nov-27 03:31N 53°51' E 008°43'0 0.0
2014-Nov-27 02:31N 53°51' E 008°43'0 0.0
2014-Nov-27 01:31N 53°51' E 008°43'0 0.0
2014-Nov-27 00:31N 53°51' E 008°43'0 0.1
2014-Nov-26 23:33N 53°51' E 008°43'1 1.3
2014-Nov-26 22:33N 53°53' E 008°42'5 5.1
2014-Nov-26 21:33N 53°57' E 008°38'4 3.6
2014-Nov-26 20:32N 53°58' E 008°32'0 0.0
2014-Nov-26 19:29N 53°58' E 008°32'0 0.0
2014-Nov-26 18:32N 53°58' E 008°32'0 0.0
2014-Nov-26 17:32N 53°58' E 008°32'2 2.3
2014-Nov-26 16:33N 53°59' E 008°28'8 7.9
2014-Nov-26 15:33N 53°59' E 008°15'9 9.0
2014-Nov-26 14:33N 53°58' E 007°60'9 8.9
2014-Nov-26 13:33N 53°56' E 007°45'10 9.2
2014-Nov-26 12:24N 53°54' E 007°27'2010.9
2014-Nov-26 10:33N 53°49' E 006°54'2511.1
2014-Nov-26 08:17N 53°42' E 006°13'810.7
2014-Nov-26 07:32N 53°40' E 006°01'1010.4
2014-Nov-26 06:33N 53°37' E 005°44'1010.1
2014-Nov-26 05:33N 53°34' E 005°28'9 9.5
2014-Nov-26 04:33N 53°31' E 005°13'9 8.9
2014-Nov-26 03:33N 53°27' E 004°59'9 8.7
2014-Nov-26 02:33N 53°24' E 004°45'9 8.9
2014-Nov-26 01:33N 53°16' E 004°38'11 9.3
2014-Nov-26 00:25N 53°07' E 004°30'8 9.1
2014-Nov-25 23:29N 52°60' E 004°22'9 9.1
2014-Nov-25 22:31N 52°52' E 004°17'9 8.9
2014-Nov-25 21:33N 52°44' E 004°08'9 9.1
2014-Nov-25 20:31N 52°38' E 003°57'10 9.5
2014-Nov-25 19:27N 52°31' E 003°45'9 9.7
2014-Nov-25 18:32N 52°24' E 003°36'1110.7
2014-Nov-25 17:33N 52°14' E 003°30'1211.3
2014-Nov-25 16:30N 52°03' E 003°25'1111.7
2014-Nov-25 15:33N 51°52' E 003°23'3 3.4
2014-Nov-25 14:33N 51°49' E 003°23'0 0.1
2014-Nov-25 13:33N 51°48' E 003°23'0 0.0
2014-Nov-25 11:30N 51°48' E 003°23'0 0.0
2014-Nov-25 10:30N 51°48' E 003°23'0 0.0
2014-Nov-25 08:21N 51°48' E 003°23'0 0.1
2014-Nov-25 07:33N 51°48' E 003°23'0 0.0
2014-Nov-25 06:33N 51°48' E 003°23'0 0.1
2014-Nov-25 05:33N 51°49' E 003°23'0 0.0
2014-Nov-25 04:33N 51°49' E 003°23'0 0.0
2014-Nov-25 03:33N 51°49' E 003°23'0 0.0
2014-Nov-25 02:27N 51°48' E 003°23'0 0.0
2014-Nov-25 01:30N 51°48' E 003°23'0 0.1
2014-Nov-25 00:24N 51°48' E 003°23'0 0.0
2014-Nov-24 23:24N 51°48' E 003°23'0 0.0
2014-Nov-24 22:33N 51°48' E 003°23'0 0.0
2014-Nov-24 21:21N 51°48' E 003°23'0 0.0
2014-Nov-24 20:15N 51°48' E 003°23'0 0.0
2014-Nov-24 19:27N 51°48' E 003°23'0 0.0
2014-Nov-24 18:30N 51°48' E 003°23'0 0.1
2014-Nov-24 17:33N 51°49' E 003°23'0 0.0
2014-Nov-24 15:33N 51°49' E 003°23'0 0.0
2014-Nov-24 14:33N 51°49' E 003°23'0 0.0
2014-Nov-24 08:30N 51°48' E 003°23'0 0.0
2014-Nov-24 07:03N 51°48' E 003°23'0 0.1
2014-Nov-24 06:27N 51°48' E 003°23'0 0.0
2014-Nov-24 05:27N 51°48' E 003°23'0 0.1
2014-Nov-24 04:30N 51°49' E 003°23'0 0.0
2014-Nov-24 03:24N 51°49' E 003°23'0 0.0
2014-Nov-24 00:15N 51°48' E 003°23'0 0.0
2014-Nov-23 21:30N 51°48' E 003°23'0 0.0
2014-Nov-23 14:27N 51°49' E 003°23'7 7.7
2014-Nov-23 13:29N 51°50' E 003°11'4310.9
2014-Nov-23 09:33N 52°01' E 002°04'10 9.7
2014-Nov-23 08:33N 52°01' E 001°49'9 8.6
2014-Nov-23 07:33N 51°60' E 001°35'3 2.9
2014-Nov-23 06:31N 51°58' E 001°32'0 0.1
2014-Nov-23 05:31N 51°58' E 001°32'0 0.0
2014-Nov-23 04:31N 51°58' E 001°32'0 0.0
2014-Nov-23 03:31N 51°58' E 001°32'0 0.0
2014-Nov-23 02:31N 51°58' E 001°32'0 0.0
2014-Nov-23 01:31N 51°58' E 001°32'0 0.0
2014-Nov-23 00:31N 51°58' E 001°32'0 0.0
2014-Nov-22 23:31N 51°58' E 001°32'0 0.1
2014-Nov-22 22:31N 51°58' E 001°32'0 0.0
2014-Nov-22 21:31N 51°58' E 001°32'0 0.0
2014-Nov-22 20:31N 51°58' E 001°32'0 0.0
2014-Nov-22 19:31N 51°58' E 001°32'0 0.1
2014-Nov-22 18:31N 51°58' E 001°32'0 0.1
2014-Nov-22 17:31N 51°58' E 001°32'0 0.1
2014-Nov-22 16:31N 51°58' E 001°32'0 0.0
2014-Nov-22 15:31N 51°58' E 001°32'0 0.0
2014-Nov-22 14:31N 51°58' E 001°32'0 0.0
2014-Nov-22 13:31N 51°58' E 001°32'0 0.0
2014-Nov-22 12:31N 51°58' E 001°32'0 0.0
2014-Nov-22 11:31N 51°58' E 001°32'0 0.1
2014-Nov-22 10:31N 51°58' E 001°32'0 0.1
2014-Nov-22 09:31N 51°58' E 001°32'0 0.0
2014-Nov-22 08:31N 51°58' E 001°32'0 0.0
2014-Nov-22 07:31N 51°58' E 001°32'0 0.0
2014-Nov-22 06:31N 51°58' E 001°32'0 0.1
2014-Nov-22 05:31N 51°58' E 001°32'0 0.1
2014-Nov-22 04:31N 51°58' E 001°32'0 0.1
2014-Nov-22 03:34N 51°58' E 001°32'8 8.0
2014-Nov-22 02:33N 51°56' E 001°19'3 2.5
2014-Nov-22 01:31N 51°57' E 001°15'0 0.0
2014-Nov-22 00:31N 51°57' E 001°15'0 0.0
2014-Nov-21 23:28N 51°57' E 001°15'0 0.0
2014-Nov-21 22:31N 51°57' E 001°15'0 0.0
2014-Nov-21 21:31N 51°57' E 001°15'0 0.0
2014-Nov-21 20:31N 51°57' E 001°15'0 0.0
2014-Nov-21 19:31N 51°57' E 001°15'0 0.0
2014-Nov-21 18:31N 51°57' E 001°15'0 0.0
2014-Nov-21 17:31N 51°57' E 001°15'0 0.0
2014-Nov-21 16:31N 51°57' E 001°15'0 0.3
2014-Nov-21 15:34N 51°57' E 001°16'7 7.2
2014-Nov-21 14:34N 51°56' E 001°27'8 7.7
2014-Nov-21 13:34N 52°02' E 001°37'8 7.9
2014-Nov-21 12:34N 52°08' E 001°45'8 8.4
2014-Nov-21 11:34N 52°14' E 001°53'9 9.4
2014-Nov-21 10:33N 52°22' E 002°02'1110.6
2014-Nov-21 09:33N 52°31' E 002°13'6410.5
2014-Nov-21 03:27N 53°09' E 003°37'1010.1
2014-Nov-21 02:27N 53°09' E 003°54'910.2
2014-Nov-21 01:34N 53°10' E 004°09'10 9.7
2014-Nov-21 00:30N 53°14' E 004°25'1210.7
2014-Nov-20 23:26N 53°25' E 004°32'910.5
2014-Nov-20 22:33N 53°31' E 004°44'1211.7
2014-Nov-20 21:34N 53°35' E 005°02'1111.0
2014-Nov-20 20:34N 53°38' E 005°20'1010.2
2014-Nov-20 19:33N 53°41' E 005°36'10 9.6
2014-Nov-20 18:33N 53°45' E 005°52'10 9.6
2014-Nov-20 17:32N 53°48' E 006°07'4911.1
2014-Nov-20 13:10N 54°00' E 007°27'711.7
2014-Nov-20 12:34N 54°02' E 007°39'1211.5
2014-Nov-20 11:33N 54°02' E 007°58'1111.4
2014-Nov-20 10:33N 54°00' E 008°18'1110.6
2014-Nov-20 09:33N 53°58' E 008°35'7 7.4
2014-Nov-20 08:33N 53°52' E 008°43'0 0.3
2014-Nov-20 07:33N 53°52' E 008°43'0 0.0
2014-Nov-20 06:33N 53°52' E 008°43'0 0.0
2014-Nov-20 05:33N 53°52' E 008°43'0 0.0
2014-Nov-20 04:33N 53°52' E 008°43'0 0.0
2014-Nov-20 03:33N 53°52' E 008°43'0 0.0
2014-Nov-20 02:33N 53°52' E 008°43'0 0.0
2014-Nov-20 01:33N 53°52' E 008°43'0 0.0
2014-Nov-20 00:33N 53°52' E 008°43'0 0.0
2014-Nov-19 23:33N 53°52' E 008°43'0 0.0
2014-Nov-19 22:33N 53°52' E 008°43'0 0.0
2014-Nov-19 21:33N 53°52' E 008°43'0 0.0
2014-Nov-19 20:33N 53°52' E 008°43'0 0.0
2014-Nov-19 19:33N 53°52' E 008°43'0 0.0
2014-Nov-19 18:33N 53°52' E 008°43'0 0.4
2014-Nov-19 17:34N 53°51' E 008°43'0 0.0
2014-Nov-19 16:33N 53°51' E 008°43'0 0.0
2014-Nov-19 15:33N 53°51' E 008°43'0 0.0
2014-Nov-19 14:33N 53°51' E 008°43'0 0.0
2014-Nov-19 13:33N 53°51' E 008°43'0 0.0
2014-Nov-19 12:33N 53°51' E 008°43'0 0.0
2014-Nov-19 11:33N 53°51' E 008°43'0 0.0
2014-Nov-19 10:33N 53°51' E 008°43'0 0.0
2014-Nov-19 09:33N 53°51' E 008°43'0 0.0
2014-Nov-19 08:33N 53°51' E 008°43'0 0.0
2014-Nov-19 07:33N 53°51' E 008°43'0 0.0
2014-Nov-19 06:33N 53°51' E 008°43'0 0.0
2014-Nov-19 05:33N 53°51' E 008°43'0 0.0
2014-Nov-19 04:33N 53°51' E 008°43'0 0.0
2014-Nov-19 03:33N 53°51' E 008°43'0 0.0
2014-Nov-19 02:33N 53°51' E 008°43'0 0.0
2014-Nov-19 01:30N 53°51' E 008°43'0 0.0
2014-Nov-19 00:33N 53°51' E 008°43'0 0.0
2014-Nov-18 23:33N 53°51' E 008°43'  
Track history (hours):
 
Tides and Currents Weather Stations Pressure Air Temp Water Temp Dewpoint Dewpoint Depression Visibility Wind Speed Wind Dir Waves Ship Positions

Antares

Last reported at 2014-Nov-28 22:33 UTC. Time now 2014-Nov-28 22:55 UTC.
Position N 53°52' E 008°43'.

Length 79 m; draft 4.4 m.

Type: Ship. MMSI: 218777000.

Date/timePositionNaut miles runAvg speedWind from/ knotsBaromVisibWave heightAir tempDewpointWater temp
2014-Nov-28 22:33N 53°52' E 008°43'0 0.1
2014-Nov-28 21:33N 53°52' E 008°43'0 0.0
2014-Nov-28 20:33N 53°52' E 008°43'0 0.0
2014-Nov-28 19:33N 53°52' E 008°43'0 0.0
2014-Nov-28 18:33N 53°52' E 008°43'0 0.0
2014-Nov-28 17:33N 53°52' E 008°43'0 0.0
2014-Nov-28 16:33N 53°52' E 008°43'0 0.0
2014-Nov-28 15:33N 53°52' E 008°43'0 0.0
2014-Nov-28 14:33N 53°52' E 008°43'0 0.0
2014-Nov-28 13:33N 53°52' E 008°43'0 0.0
2014-Nov-28 12:30N 53°52' E 008°43'0 0.0
2014-Nov-28 11:33N 53°52' E 008°43'0 0.0
2014-Nov-28 10:33N 53°52' E 008°43'0 0.0
2014-Nov-28 09:33N 53°52' E 008°43'0 0.0
2014-Nov-28 08:33N 53°52' E 008°43'0 0.0
2014-Nov-28 07:30N 53°52' E 008°43'0 0.0
2014-Nov-28 06:33N 53°52' E 008°43'0 0.1
2014-Nov-28 05:33N 53°52' E 008°43'0 0.0
2014-Nov-28 04:33N 53°52' E 008°43'0 0.0
2014-Nov-28 03:33N 53°52' E 008°43'0 0.0
2014-Nov-28 02:33N 53°52' E 008°43'0 0.0
2014-Nov-28 01:33N 53°52' E 008°43'0 0.0
2014-Nov-28 00:33N 53°52' E 008°43'0 0.0
2014-Nov-27 23:33N 53°52' E 008°43'0 0.0
2014-Nov-27 22:33N 53°52' E 008°43'0 0.0
2014-Nov-27 21:33N 53°52' E 008°43'0 0.0
2014-Nov-27 20:33N 53°52' E 008°43'0 0.0
2014-Nov-27 19:33N 53°52' E 008°43'0 0.0
2014-Nov-27 18:33N 53°52' E 008°43'0 0.0
2014-Nov-27 17:30N 53°52' E 008°43'0 0.0
2014-Nov-27 16:33N 53°52' E 008°43'0 0.0
2014-Nov-27 15:33N 53°52' E 008°43'0 0.0
2014-Nov-27 14:33N 53°52' E 008°43'0 0.0
2014-Nov-27 13:33N 53°52' E 008°43'0 0.0
2014-Nov-27 12:33N 53°52' E 008°43'1 0.6
2014-Nov-27 11:33N 53°51' E 008°43'0 0.1
2014-Nov-27 10:31N 53°51' E 008°43'0 0.0
2014-Nov-27 09:31N 53°51' E 008°43'0 0.0
2014-Nov-27 08:31N 53°51' E 008°43'0 0.0
2014-Nov-27 07:31N 53°51' E 008°43'0 0.0
2014-Nov-27 06:31N 53°51' E 008°43'0 0.0
2014-Nov-27 05:31N 53°51' E 008°43'0 0.0
2014-Nov-27 04:31N 53°51' E 008°43'0 0.0
2014-Nov-27 03:31N 53°51' E 008°43'0 0.0
2014-Nov-27 02:31N 53°51' E 008°43'0 0.0
2014-Nov-27 01:31N 53°51' E 008°43'0 0.0
2014-Nov-27 00:31N 53°51' E 008°43'0 0.1
2014-Nov-26 23:33N 53°51' E 008°43'1 1.3
2014-Nov-26 22:33N 53°53' E 008°42'5 5.1
2014-Nov-26 21:33N 53°57' E 008°38'4 3.6
2014-Nov-26 20:32N 53°58' E 008°32'0 0.0
2014-Nov-26 19:29N 53°58' E 008°32'0 0.0
2014-Nov-26 18:32N 53°58' E 008°32'0 0.0
2014-Nov-26 17:32N 53°58' E 008°32'2 2.3
2014-Nov-26 16:33N 53°59' E 008°28'8 7.9
2014-Nov-26 15:33N 53°59' E 008°15'9 9.0
2014-Nov-26 14:33N 53°58' E 007°60'9 8.9
2014-Nov-26 13:33N 53°56' E 007°45'10 9.2
2014-Nov-26 12:24N 53°54' E 007°27'2010.9
2014-Nov-26 10:33N 53°49' E 006°54'2511.1
2014-Nov-26 08:17N 53°42' E 006°13'810.7
2014-Nov-26 07:32N 53°40' E 006°01'1010.4
2014-Nov-26 06:33N 53°37' E 005°44'1010.1
2014-Nov-26 05:33N 53°34' E 005°28'9 9.5
2014-Nov-26 04:33N 53°31' E 005°13'9 8.9
2014-Nov-26 03:33N 53°27' E 004°59'9 8.7
2014-Nov-26 02:33N 53°24' E 004°45'9 8.9
2014-Nov-26 01:33N 53°16' E 004°38'11 9.3
2014-Nov-26 00:25N 53°07' E 004°30'8 9.1
2014-Nov-25 23:29N 52°60' E 004°22'9 9.1
2014-Nov-25 22:31N 52°52' E 004°17'9 8.9
2014-Nov-25 21:33N 52°44' E 004°08'9 9.1
2014-Nov-25 20:31N 52°38' E 003°57'10 9.5
2014-Nov-25 19:27N 52°31' E 003°45'9 9.7
2014-Nov-25 18:32N 52°24' E 003°36'1110.7
2014-Nov-25 17:33N 52°14' E 003°30'1211.3
2014-Nov-25 16:30N 52°03' E 003°25'1111.7
2014-Nov-25 15:33N 51°52' E 003°23'3 3.4
2014-Nov-25 14:33N 51°49' E 003°23'0 0.1
2014-Nov-25 13:33N 51°48' E 003°23'0 0.0
2014-Nov-25 11:30N 51°48' E 003°23'0 0.0
2014-Nov-25 10:30N 51°48' E 003°23'0 0.0
2014-Nov-25 08:21N 51°48' E 003°23'0 0.1
2014-Nov-25 07:33N 51°48' E 003°23'0 0.0
2014-Nov-25 06:33N 51°48' E 003°23'0 0.1
2014-Nov-25 05:33N 51°49' E 003°23'0 0.0
2014-Nov-25 04:33N 51°49' E 003°23'0 0.0
2014-Nov-25 03:33N 51°49' E 003°23'0 0.0
2014-Nov-25 02:27N 51°48' E 003°23'0 0.0
2014-Nov-25 01:30N 51°48' E 003°23'0 0.1
2014-Nov-25 00:24N 51°48' E 003°23'0 0.0
2014-Nov-24 23:24N 51°48' E 003°23'0 0.0
2014-Nov-24 22:33N 51°48' E 003°23'0 0.0
2014-Nov-24 21:21N 51°48' E 003°23'0 0.0
2014-Nov-24 20:15N 51°48' E 003°23'0 0.0
2014-Nov-24 19:27N 51°48' E 003°23'0 0.0
2014-Nov-24 18:30N 51°48' E 003°23'0 0.1
2014-Nov-24 17:33N 51°49' E 003°23'0 0.0
2014-Nov-24 15:33N 51°49' E 003°23'0 0.0
2014-Nov-24 14:33N 51°49' E 003°23'0 0.0
2014-Nov-24 08:30N 51°48' E 003°23'0 0.0
2014-Nov-24 07:03N 51°48' E 003°23'0 0.1
2014-Nov-24 06:27N 51°48' E 003°23'0 0.0
2014-Nov-24 05:27N 51°48' E 003°23'0 0.1
2014-Nov-24 04:30N 51°49' E 003°23'0 0.0
2014-Nov-24 03:24N 51°49' E 003°23'0 0.0
2014-Nov-24 00:15N 51°48' E 003°23'0 0.0
2014-Nov-23 21:30N 51°48' E 003°23'0 0.0
2014-Nov-23 14:27N 51°49' E 003°23'7 7.7
2014-Nov-23 13:29N 51°50' E 003°11'4310.9
2014-Nov-23 09:33N 52°01' E 002°04'10 9.7
2014-Nov-23 08:33N 52°01' E 001°49'9 8.6
2014-Nov-23 07:33N 51°60' E 001°35'3 2.9
2014-Nov-23 06:31N 51°58' E 001°32'0 0.1
2014-Nov-23 05:31N 51°58' E 001°32'0 0.0
2014-Nov-23 04:31N 51°58' E 001°32'0 0.0
2014-Nov-23 03:31N 51°58' E 001°32'0 0.0
2014-Nov-23 02:31N 51°58' E 001°32'0 0.0
2014-Nov-23 01:31N 51°58' E 001°32'0 0.0
2014-Nov-23 00:31N 51°58' E 001°32'0 0.0
2014-Nov-22 23:31N 51°58' E 001°32'0 0.1
2014-Nov-22 22:31N 51°58' E 001°32'0 0.0
2014-Nov-22 21:31N 51°58' E 001°32'0 0.0
2014-Nov-22 20:31N 51°58' E 001°32'0 0.0
2014-Nov-22 19:31N 51°58' E 001°32'0 0.1
2014-Nov-22 18:31N 51°58' E 001°32'0 0.1
2014-Nov-22 17:31N 51°58' E 001°32'0 0.1
2014-Nov-22 16:31N 51°58' E 001°32'0 0.0
2014-Nov-22 15:31N 51°58' E 001°32'0 0.0
2014-Nov-22 14:31N 51°58' E 001°32'0 0.0
2014-Nov-22 13:31N 51°58' E 001°32'0 0.0
2014-Nov-22 12:31N 51°58' E 001°32'0 0.0
2014-Nov-22 11:31N 51°58' E 001°32'0 0.1
2014-Nov-22 10:31N 51°58' E 001°32'0 0.1
2014-Nov-22 09:31N 51°58' E 001°32'0 0.0
2014-Nov-22 08:31N 51°58' E 001°32'0 0.0
2014-Nov-22 07:31N 51°58' E 001°32'0 0.0
2014-Nov-22 06:31N 51°58' E 001°32'0 0.1
2014-Nov-22 05:31N 51°58' E 001°32'0 0.1
2014-Nov-22 04:31N 51°58' E 001°32'0 0.1
2014-Nov-22 03:34N 51°58' E 001°32'8 8.0
2014-Nov-22 02:33N 51°56' E 001°19'3 2.5
2014-Nov-22 01:31N 51°57' E 001°15'0 0.0
2014-Nov-22 00:31N 51°57' E 001°15'0 0.0
2014-Nov-21 23:28N 51°57' E 001°15'0 0.0
2014-Nov-21 22:31N 51°57' E 001°15'0 0.0
2014-Nov-21 21:31N 51°57' E 001°15'0 0.0
2014-Nov-21 20:31N 51°57' E 001°15'0 0.0
2014-Nov-21 19:31N 51°57' E 001°15'0 0.0
2014-Nov-21 18:31N 51°57' E 001°15'0 0.0
2014-Nov-21 17:31N 51°57' E 001°15'0 0.0
2014-Nov-21 16:31N 51°57' E 001°15'0 0.3
2014-Nov-21 15:34N 51°57' E 001°16'7 7.2
2014-Nov-21 14:34N 51°56' E 001°27'8 7.7
2014-Nov-21 13:34N 52°02' E 001°37'8 7.9
2014-Nov-21 12:34N 52°08' E 001°45'8 8.4
2014-Nov-21 11:34N 52°14' E 001°53'9 9.4
2014-Nov-21 10:33N 52°22' E 002°02'1110.6
2014-Nov-21 09:33N 52°31' E 002°13'6410.5
2014-Nov-21 03:27N 53°09' E 003°37'1010.1
2014-Nov-21 02:27N 53°09' E 003°54'910.2
2014-Nov-21 01:34N 53°10' E 004°09'10 9.7
2014-Nov-21 00:30N 53°14' E 004°25'1210.7
2014-Nov-20 23:26N 53°25' E 004°32'910.5
2014-Nov-20 22:33N 53°31' E 004°44'1211.7
2014-Nov-20 21:34N 53°35' E 005°02'1111.0
2014-Nov-20 20:34N 53°38' E 005°20'1010.2
2014-Nov-20 19:33N 53°41' E 005°36'10 9.6
2014-Nov-20 18:33N 53°45' E 005°52'10 9.6
2014-Nov-20 17:32N 53°48' E 006°07'4911.1
2014-Nov-20 13:10N 54°00' E 007°27'711.7
2014-Nov-20 12:34N 54°02' E 007°39'1211.5
2014-Nov-20 11:33N 54°02' E 007°58'1111.4
2014-Nov-20 10:33N 54°00' E 008°18'1110.6
2014-Nov-20 09:33N 53°58' E 008°35'7 7.4
2014-Nov-20 08:33N 53°52' E 008°43'0 0.3
2014-Nov-20 07:33N 53°52' E 008°43'0 0.0
2014-Nov-20 06:33N 53°52' E 008°43'0 0.0
2014-Nov-20 05:33N 53°52' E 008°43'0 0.0
2014-Nov-20 04:33N 53°52' E 008°43'0 0.0
2014-Nov-20 03:33N 53°52' E 008°43'0 0.0
2014-Nov-20 02:33N 53°52' E 008°43'0 0.0
2014-Nov-20 01:33N 53°52' E 008°43'0 0.0
2014-Nov-20 00:33N 53°52' E 008°43'0 0.0
2014-Nov-19 23:33N 53°52' E 008°43'0 0.0
2014-Nov-19 22:33N 53°52' E 008°43'0 0.0
2014-Nov-19 21:33N 53°52' E 008°43'0 0.0
2014-Nov-19 20:33N 53°52' E 008°43'0 0.0
2014-Nov-19 19:33N 53°52' E 008°43'0 0.0
2014-Nov-19 18:33N 53°52' E 008°43'0 0.4
2014-Nov-19 17:34N 53°51' E 008°43'0 0.0
2014-Nov-19 16:33N 53°51' E 008°43'0 0.0
2014-Nov-19 15:33N 53°51' E 008°43'0 0.0
2014-Nov-19 14:33N 53°51' E 008°43'0 0.0
2014-Nov-19 13:33N 53°51' E 008°43'0 0.0
2014-Nov-19 12:33N 53°51' E 008°43'0 0.0
2014-Nov-19 11:33N 53°51' E 008°43'0 0.0
2014-Nov-19 10:33N 53°51' E 008°43'0 0.0
2014-Nov-19 09:33N 53°51' E 008°43'0 0.0
2014-Nov-19 08:33N 53°51' E 008°43'0 0.0
2014-Nov-19 07:33N 53°51' E 008°43'0 0.0
2014-Nov-19 06:33N 53°51' E 008°43'0 0.0
2014-Nov-19 05:33N 53°51' E 008°43'0 0.0
2014-Nov-19 04:33N 53°51' E 008°43'0 0.0
2014-Nov-19 03:33N 53°51' E 008°43'0 0.0
2014-Nov-19 02:33N 53°51' E 008°43'0 0.0
2014-Nov-19 01:30N 53°51' E 008°43'0 0.0
2014-Nov-19 00:33N 53°51' E 008°43'0 0.0
2014-Nov-18 23:33N 53°51' E 008°43'  

Dump ship's entire track history